Regional Weather Roundup
Issued by NWS Upton, NY

Current Version | Previous Version | Text Only | Print | Product List | Glossary On
Versions: 1 2 3 4 5 6 7 8 9 10 11 12 13 14 15 16 17 18 19 20 21 22 23 24 25 26 27 28 29
000
ASUS41 KOKX 240904
RWROKX

REGIONAL WEATHER ROUNDUP
NATIONAL WEATHER SERVICE NEW YORK NY
500 AM EDT WED AUG 24 2016

NOTE: "FAIR" INDICATES FEW OR NO CLOUDS BELOW 12,000 FEET WITH NO
SIGNIFICANT WEATHER AND/OR OBSTRUCTIONS TO VISIBILITY.

NYZ071-072-176-178-NJZ106-104-241000-
NEW YORK CITY METRO AREA

CITY           SKY/WX    TMP DP  RH WIND       PRES   REMARKS
Central Park   CLEAR     68  58  70 CALM      30.29S
LaGuardia APRT CLEAR     72  59  63 SW3       30.25S
Kennedy INTL   PTCLDY    67  63  87 SW3       30.27S
Newark/Liberty CLEAR     64  58  80 SW5       30.26S
Bronx Bot Gard   N/A     66  55  68 SW5       30.28R
Wall St Helipt SUNNY     70  61  73 W5        30.27S
Teterboro      CLEAR     65  58  78 CALM      30.25S
$$

NYZ177-179-078>081-241000-
LONG ISLAND NEW YORK

CITY           SKY/WX    TMP DP  RH WIND       PRES   REMARKS
Farmingdale    CLEAR     66  60  81 CALM      30.26S
MacArthur/ISP  CLEAR     66  61  84 CALM      30.25S
Shirley        CLEAR     63  61  93 CALM      30.26S
Riverhead      NOT AVBL
Westhampton    CLEAR     56  53  90 CALM      30.28S
Southampton    NOT AVBL
Bridgehampton  NOT AVBL
East Hampton   FAIR      56  55  94 CALM      30.25S
Montauk          N/A     69  63  81 SW3       30.27S
$$

NYZ052-065-067-241000-
HUDSON VALLEY

CITY           SKY/WX    TMP DP  RH WIND       PRES   REMARKS
White Plains   CLEAR     62  60  93 NW5       30.26S
Newburgh       CLEAR     61  59  94 CALM      30.27F
Montgomery     CLEAR     58  57  97 SW5       30.26S
Poughkeepsie   CLEAR     59  55  87 CALM      30.25S
Albany         CLEAR     59  57  93 CALM      30.25S
$$

NJZ001-105-106-008-010-013-015-019>022-104-241000-
NEW JERSEY

CITY           SKY/WX    TMP DP  RH WIND       PRES   REMARKS
Newark/Liberty CLEAR     64  58  80 SW5       30.26S
Teterboro      CLEAR     65  58  78 CALM      30.25S
Caldwell         N/A     61  58  90 CALM      30.28S
Morristown       N/A     55  54  94 CALM      30.27S FOG
Somerville     CLEAR     56  55  97 CALM      30.26S FOG
Linden         FAIR      64  57  80 CALM      30.28S
Sussex         CLEAR     55  55 100 CALM      30.27S
Abdover          N/A     55  54  96 CALM      30.28S
Trenton        CLEAR     62  59  90 CALM      30.28R
Millville      PTCLDY    58  58 100 CALM      30.28S
Atlantic City  CLEAR     57  55  94 CALM      30.28S
Wrightstown    CLEAR     60  58  90 SW1       30.25S
Toms River     CLEAR     56  54  93 S3        30.28S
Belmar         CLEAR     62  57  83 SW5       30.28S
$$

PAZ047>061-062-071-241000-
EASTERN PENNSYLVANIA

CITY           SKY/WX    TMP DP  RH WIND       PRES   REMARKS
Philadelphia   CLEAR     68  60  75 SW5       30.29R
Allentown      CLEAR     58  55  90 CALM      30.28S
Scranton       CLEAR     59  55  87 E6        30.28S
$$

CTZ002-004>006-009-010-012-RIZ004-006-007-MAZ004-011-015-241000-
SOUTHERN NEW ENGLAND
 IN CT

CITY           SKY/WX    TMP DP  RH WIND       PRES   REMARKS
Bradley INTL   CLEAR     59  55  87 CALM      30.25F
Hartford       CLEAR     65  60  84 CALM      30.25S
Danbury        CLEAR     55  54  96 CALM      30.27F
Wtrbury/Oxford   N/A     57  52  82 CALM      30.28S
Bridgeport     CLEAR     66  60  81 CALM      30.25F
Meriden        CLEAR     59  55  87 CALM      30.25F
New Haven      CLEAR     63  60  90 VRB3      30.25F
Chester        FAIR      66  63  88 CALM      30.26S
Groton         CLEAR     62  59  90 CALM      30.25S
Wilimantic     PTCLDY    57  56  96 CALM      30.26F

 IN RI

CITY           SKY/WX    TMP DP  RH WIND       PRES   REMARKS
Providence     CLEAR     63  59  87 W5        30.25S
Block Island   CLEAR     68  64  87 SW9       30.26F
Westerly       CLEAR     59  55  87 CALM      30.26S
 IN MA

CITY           SKY/WX    TMP DP  RH WIND       PRES   REMARKS
Boston         CLEAR     65  58  78 SW6       30.23S
Worcester      CLEAR     59  53  80 W8        30.26S
Westfield      CLEAR     55  55 100 CALM      30.25S
Provincetown   CLEAR     63  61  93 SW6       30.24S
Nantucket      CLEAR     65  61  87 W8        30.26R
$$

ANZ330-335-338-340-345-350-353-355-241000-
COASTAL MARINE OBSERVATIONS


STATION/POSITION TIME  SKY/WX   TEMP    WIND        PRES    VSBY  WAVE
                                AIR SEA DIR/SP/G                  HT/PER
                 (UTC)          (F)     (DEG/KT/KT) (MB)    (MI)  (FT/S)
NY HARB ENTRANCE 0750            72 77  260/ 10/ 12 1024.6          2/ 4
20S FIRE ISLAND  0750            74 76  250/ 10/ 12 1024.7          2/ 4
GREAT SOUTH BAY  0830            73 79  250/  8/ 10   N/A
23 SSW MONTAUK P 0750            73 74  240/ 10/ 12 1025.2          2/ 3
15 E BARNEGAT LI 0800               76                N/A           2/10
HUDSON CANYON    0750            74 77              1025.1          2/12
KINGS POINT      0800            71 75              1024.4
EXECUTION ROCKS  0800            71     200/  6/  8   N/A
CENTRAL LI SOUND 0800            73 74  260/  8/ 10   N/A           1/ 3
EASTERN LI SOUND 0800            71 69  230/ 10/ 12   N/A
ROBBINS REEF     0800            68     250/  4/  5 1024.1
$$


>>>>>>>>>>>>>>>>>>>>>>>>>>>> KEY <<<<<<<<<<<<<<<<<<<<<<<<<<<
>                                                          <
>     SKY/WX - Sky Condition/Present Weather               <
>     TMP    - Temperature in Fahrenheit                   <
>     DP     - Dew Point in Fahrenheit                     <
>     RH     - Relative Humidity in Percent                <
>     WIND   - Direction (from) and Speed in MPH           <
>     PRES   - Mean Sea Level Pressure (inches of Hg)      <
>     WCI    - Wind Chill Index                            <
>     VSB    - VISIBILITY IN MILES                         <
>     HX     - HEAT INDEX                                  <
>     TC     - TEMPERATURE IN CELSIUS                      <
>     VRB    - VARIABLE WIND DIRECTION                     <
>                                                          <
>>>>>>>>>>>>>>>>>>>>>>>>>>>> KEY <<<<<<<<<<<<<<<<<<<<<<<<<<<




USA.gov is the U.S. government's official web portal to all federal, state and local government web resources and services.